sat.trackr.live / text

‹ back to catalog

KUIPER-00483

NORAD 68878 · 2026-095Q

PAYLOAD ACTIVE UNKNOWN

§ Identity

Operator
Country
US
Launch date
2026-04-28
Launch site
AFETR
Launch vehicle
Mass (kg)
RCS (m²)

External: N2YO · Heavens-Above · Gunter

§ Orbital elements

Epoch: 2026-05-25T04:00:03.998880Z

Period
95.32 min
Inclination
51.8894°
Eccentricity
0.0010165
Mean motion
15.10765550 rev/d
Perigee alt
526.8 km
Apogee alt
540.9 km
Semi-major
6,912.0 km
B*
-1.5305e-3
RAAN
355.3042°
Arg perigee
232.4575°
Mean anomaly
156.3511°
Rev number
424

§ Raw data

KUIPER-004831 68878U 26095Q   26145.16671295 -.00025943  00000+0 -15305-2 0  99942 68878  51.8894 355.3042 0010165 232.4575 156.3511 15.10765550  4244

JSON: /api/v1/satellites/68878 · /tle

For live sub-satellite position, see the globe view (requires WebGL).

§ Visibility from observer

Set your observer location to see the next 7 days of passes ≥ 10°. The values pass through the URL so the page stays shareable.

No JS? Fill the form by hand. The geolocation button needs JavaScript.